Location: Bremen
(53.0793°N, 8.8017°E)
Time: 20:33:33
(UTC+01:00)

Tiros 1 - Pass Details

Date: 08 December 2021
Orbit: 629 x 664 km, 48.4° (Epoch: 18 January)

Event Time Altitude Azimuth Distance (km) Brightness Sun altitude
Rises 18:06:56 0° 229° (SW) 2,913 11.7 -16.6°
Reaches altitude 10° 18:09:26 10° 220° (SW) 2,011 10.5 -17.0°
Maximum altitude 18:13:30 31° 158° (SSE) 1,105 8.2 -17.5°
Enters shadow 18:15:11 25° 120° (ESE) 1,305 8.3 -17.8°
